Location: Gwatt
(46.7204°N, 7.6223°E)
Time: 18:25:32
(UTC+00:00)

Courier 1B Rocket - Pass Details

Date: 22 January 2021
Orbit: 920 x 1202 km, 28.3° (Epoch: 05 March)

Event Time Altitude Azimuth Distance (km) Brightness Sun altitude
Rises 09:36:45 0° 242° (WSW) 3,905 8.1 18.0°
Reaches altitude 10° 09:40:31 10° 223° (SW) 3,000 7.8 18.3°
Maximum altitude 09:45:04 17° 185° (S) 2,540 8.3 18.7°
Drops below altitude 10° 09:49:44 10° 148° (SSE) 3,094 10.0 19.1°
Sets 09:53:43 0° 130° (SE) 4,080 9.4 19.4°
